Albacete / Los Llanos, Spain

5:13 AM CET on February 20, 2017 (GMT +0100)
Albacete

Weather History for LEAB - December, 2013

Change the Weather History Date:

Friday, December 13, 2013

  Actual Average Record
Temperature  
Mean Temperature 40 °F -  
Max Temperature 56 °F - - ()
Min Temperature 23 °F - - ()
Degree Days  
Heating Degree Days 26    
Moisture  
Dew Point 31 °F    
Average Humidity 77    
Maximum Humidity 100    
Minimum Humidity 38    
Precipitation  
Precipitation 0.00 in 0.04 in - ()
Sea Level Pressure  
Sea Level Pressure 30.34 in    
Wind  
Wind Speed 4 mph ()    
Max Wind Speed 14 mph    
Max Gust Speed -    
Visibility 7.1 miles    
Events      
T = Trace of Precipitation, MM = Missing Value Source: Averaged Metar Reports

Daily Weather History Graph

Daily Weather History Graph

Search for Another Location

Airport or City:

Trip Planner

Search our weather history database for the weather conditions in past years. The results will help you decide how hot, cold, wet, or windy it might be!

Date:

Astronomy

Dec. 13, 2013 Rise Set
Actual Time 8:17 AM CET 5:45 PM CET
Civil Twilight 7:47 AM CET 6:15 PM CET
Nautical Twilight 7:14 AM CET 6:49 PM CET
Astronomical Twilight 6:41 AM CET 7:21 PM CET
Moon 3:18 PM CET (12/13) 4:27 AM CET (12/13)
Length of Visible Light 10h 28m
Length of Day
9h 28m
Waxing Gibbous, 86% of the Moon is Illuminated
Dec 13
Waxing Gibbous
Dec 17
Full
Dec 25
Last Quarter
Jan 1
New
Jan 8
First Quarter

Hourly Weather History & Observations

Time (CET) Temp. Windchill Dew Point Humidity Pressure Visibility Wind Dir Wind Speed Gust Speed Precip Events Conditions
12:00 AM 30.2 °F - 30.2 °F 100% 30.39 in - Calm Calm - N/A   Clear
1:00 AM 29 °F - 28 °F 92% 30.50 in 9 mi Calm Calm - -  
1:00 AM 28.4 °F - 28.4 °F 100% 30.39 in - Calm Calm - N/A   Clear
2:00 AM 26.6 °F 21.2 °F 26.6 °F 100% 30.36 in - South 4.6 mph - N/A   Clear
3:00 AM 26.6 °F 21.2 °F 26.6 °F 100% 30.36 in - South 4.6 mph - N/A   Clear
4:00 AM 24.8 °F 20.5 °F 24.8 °F 100% 30.36 in - SSE 3.5 mph - N/A   Clear
5:00 AM 23.0 °F 18.4 °F 23.0 °F 100% 30.33 in - SSE 3.5 mph - N/A   Clear
6:00 AM 23.0 °F 18.4 °F 23.0 °F 100% 30.33 in - South 3.5 mph - N/A   Clear
7:00 AM 26 °F - 26 °F 97% 30.48 in 6 mi South 4.6 mph - -   Clear
7:00 AM 23.0 °F 17.0 °F 21.2 °F 93% 30.33 in - South 4.6 mph - N/A   Clear
8:00 AM 23.0 °F - 23.0 °F 100% 30.33 in 4.3 mi Calm Calm - N/A   Unknown
9:00 AM 23.0 °F 17.0 °F 23.0 °F 100% 30.33 in 4.3 mi SSE 4.6 mph - N/A   Unknown
10:00 AM 33.8 °F - 32.0 °F 93% 30.36 in 5.6 mi Variable 2.3 mph - N/A   Unknown
11:00 AM 41.0 °F - 33.8 °F 76% 30.36 in - Variable 2.3 mph - N/A   Clear
12:00 PM 46.4 °F 42.9 °F 35.6 °F 66% 30.33 in - NNW 6.9 mph - N/A   Clear
1:00 PM 51 °F - 38 °F 50% 30.32 in 9 mi WNW 5.8 mph - -   Clear
1:00 PM 51.8 °F - 39.2 °F 62% 30.30 in - WNW 6.9 mph - N/A   Clear
2:00 PM 53.6 °F - 35.6 °F 51% 30.30 in - WNW 12.7 mph - N/A   Clear
3:00 PM 55.4 °F - 30.2 °F 38% 30.27 in - WNW 13.8 mph - N/A   Clear
4:00 PM 53.6 °F - 33.8 °F 47% 30.27 in - NW 12.7 mph - N/A   Clear
5:00 PM 51.8 °F - 32.0 °F 47% 30.27 in - NW 8.1 mph - N/A   Clear
6:00 PM 50.0 °F - 35.6 °F 58% 30.27 in - NW 9.2 mph - N/A   Clear
7:00 PM 49 °F - 35 °F 47% 30.31 in 12 mi WNW 9.2 mph - -   Partly Cloudy
7:00 PM 48.2 °F - 35.6 °F 62% 30.30 in - WNW 9.2 mph - N/A   Clear
8:00 PM 48.2 °F - 35.6 °F 62% 30.30 in - NW 9.2 mph - N/A   Clear
9:00 PM 46.4 °F 42.9 °F 35.6 °F 66% 30.33 in - WNW 6.9 mph - N/A   Clear
10:00 PM 46.4 °F 42.9 °F 37.4 °F 71% 30.33 in - NW 6.9 mph - N/A   Clear
11:00 PM 44.6 °F 43.1 °F 37.4 °F 76% 30.33 in 6.2 mi NW 3.5 mph - N/A   Partly Cloudy